DELTA 1 DEB, 42636

Orbit data source: Space-Track

DELTA 1 DEB, 42636 is space debris in SSO originally from a launch on Thu, 12 Jun 1975 UTC launched from the Air Force Western Test Range (AFWTR). Debris objects in space refer to the collection of defunct objects orbiting the Earth. Examples of debris include non-operational satellites, rocket bodies, and fragments generated from explosions, collisions, or faulty payload assembly.

Loading next visibility...
Identifier
42636, 1975-052LV
Orbit
SSO
Country
Flag of USUS
Related business
Manufacturer
Unknown
Mission
Spacecraft
Bus & Motor
Unknown
Mass
Unknown
Launch date (UTC)
1975-06-12 (51 years ago)
Launch vehicle
Unknown
Launch site
Air Force Western Test Range (AFWTR)
Object type
Payload
Rocket body
Debris
Shape & HBR
Unknown shape, 0.1 m
Radar Cross Section
Small (<0.1 m²)

Expand to show TLE details & history
Last TLE update: 22 hours ago

TLE from 22 hours ago
0 DELTA 1 DEB
1 42636U 75052LV  25352.33420326  .00000186  00000-0  52204-3 0  9991
2 42636  99.6776 188.5900 0130882 233.7849 307.3478 13.22144716582060
Epoch: 2025-12-18T08:01Z
TLE epoch observation values (Epoch: 2025-12-18T08:01:15.161Z)
Latitude
-0.04058°
Longitude
161.07874°
Altitude
1,120.126 km
Speed
7.321 km/s
True Right ascension
00h 34m 19s
True Declination
0° 02' 25"
Sunlit
Object was in daylight at epoch
Visualization orbit readout
Latitude
Unknown
Longitude
Unknown
Altitude
Unknown
Speed
Unknown
Apparent Right ascension
Unknown
Apparent Declination
Unknown
Sunlit
N/A
Visualization observer readout
Local Sidereal Time
04:39:09
Azimuth
Unknown
Elevation
Unknown
Doppler factor
Unknown
Orbital elements
Apogee altitude
1,272.718 km
Perigee altitude
1,075.034 km
Semi-major axis
7,552.013 km
Eccentricity
0.01309
Inclination
99.6776°
RAAN
188.59°
Arg. of periapsis
233.7849°
True anomaly
306.14365°
Mean anomaly
307.3478°
Eccentric anomaly
306.74692°
Mean motion
3.30711 °/min
Orbital period
108.86 mins
BSTAR
0.00052204
Loading maneuver chart data...
Computing Atmospheric mass density...
Loading historical data...
Loading historical data...
Loading historical data...
Loading historical data...
Loading historical data...
Loading historical data...
Loading historical data...

Documentation

Showing up to 5 results
|